Regional Weather Roundup
Issued by NWS Jackson, KY

Home | Current Version | Previous Version | Graphics & Text | Print | Product List | Glossary On
Versions: 1 2 3 4 5 6 7 8 9 10 11 12 13 14 15 16 17 18 19 20 21 22 23 24 25 26 27 28
000
ASUS43 KJKL 271910
RWRJKL

EAST KENTUCKY HOURLY WEATHER ROUNDUP
NATIONAL WEATHER SERVICE JACKSON KY
300 PM EDT MON MAR 27 2017

NOTE: "FAIR" INDICATES FEW OR NO CLOUDS BELOW 12,000 FEET WITH
NO SIGNIFICANT WEATHER AND/OR OBSTRUCTIONS TO VISIBILITY.

* THESE REPORTS ARE NOT UNDER NWS QUALITY CONTROL AND MAY NOT
  REPORT WEATHER SUCH AS PRECIPITATION AND FOG.

KYZ079-080-083-085-087-088-110-112-115-119-120-272000
...EASTERN KENTUCKY...

CITY           SKY/WX    TMP DP  RH WIND       PRES   REMARKS
JACKSON        CLOUDY    63  59  87 CALM      29.97F
LONDON         MOSUNNY   70  59  68 NW8       29.96F
SOMERSET*      CLOUDY    68  55  64 S3        29.95F
MONTICELLO*    CLOUDY    73  58  59 VRB7G23   29.95F
WILLIAMSBURG*  PTCLDY    72  54  53 SW5       29.95F
MIDDLESBORO*   MOSUNNY   73  58  58 S15G21    29.97F
HARLAN APT*    CLOUDY    75  50  41 S8G16     29.97F
PIKE CO APT*   TSTM      58  57  98 W13G29    30.00R
BIG SANDY APT* LGT RAIN  61  59  93 CALM      29.98R
MOREHEAD APT*  CLOUDY    68  57  68 VRB3      29.96F
ASHLAND*       CLOUDY    61  61 100 NW5       29.92F
$$

KYZ035-036-041-042-044-050-067-078-099-272000
...CENTRAL KENTUCKY...

CITY           SKY/WX    TMP DP  RH WIND       PRES   REMARKS
MT STERLING*   LGT RAIN  66  61  82 SW6       29.96F
FLEMING/MASON* CLOUDY    66  58  73 S3        29.95F
DANVILLE*      CLOUDY    66  55  68 S6        29.94F
LEXINGTON      CLOUDY    67  54  63 S6        29.93F
FRANKFORT      PTSUNNY   69  56  62 SE9       29.91F
LOUISVILLE     CLOUDY    70  55  59 S9G17     29.89F
LEBANON*         N/A     68  59  73 S8        29.93F
GLASGOW*       CLOUDY    74  58  58 S14       29.89F
BOWLING GREEN  PTSUNNY   73  60  63 S14       29.86F
$$

KYZ091>093-OHZ055-061-077-WVZ005-015-034-035-042-272000
...SOUTHERN OHIO/WEST VIRGINIA...

CITY           SKY/WX    TMP DP  RH WIND       PRES   REMARKS
COVINGTON      CLOUDY    65  54  67 E9        29.91F
COLUMBUS       CLOUDY    66  51  58 SW8       29.95F
DAYTON         CLOUDY    63  48  58 S6        29.93F
WILMINGTON     CLOUDY    61  51  70 CALM      29.93F
HUNTINGTON     CLOUDY    71  56  58 SW7       29.94F
CHARLESTON     CLOUDY    73  53  49 SW6       29.94F
PINEVILLE*     MOSUNNY   77  41  27 MISG      30.01F
BECKLEY        CLOUDY    69  49  48 W7        30.00F
LOGAN CO APT*  MOCLDY    68  55  64 W5        29.98F
$$

VAZ002-007-008-TNZ017-027-036-066-071-272000
...SOUTHWEST VIRGINIA/EAST TENNESSEE...

CITY           SKY/WX    TMP DP  RH WIND       PRES   REMARKS
WISE*          CLOUDY    68  48  49 S9        30.03F
JONESVILLE*      N/A     73  55  53 W13       30.00F
ABINGDON*      MOSUNNY   75  48  37 W12G17    30.02F
BRISTOL        CLOUDY    75  49  39 SW14      30.00F
MORRISTOWN*    MOCLDY    72  61  68 W6G13     29.99F
SEVIERVILLE*   PTCLDY    75  54  46 SW5       29.97F
KNOXVILLE      CLOUDY    74  57  55 SW17G25   29.97F
LAFOLLETTE*    PTCLDY    72  57  60 S9G17     30.00F
OAK RIDGE      CLOUDY    76  56  49 SW8G20    29.98F
CROSSVILLE     MOSUNNY   69  54  58 VRB6      29.98F
NASHVILLE      CLOUDY    76  60  57 S20G25    29.89F
$$

...KEY TO REMARKS...
VSB - VISIBILITY IN MILES
WCI - WIND CHILL INDEX
HX  - HEAT INDEX

$$




USA.gov is the U.S. government's official web portal to all federal, state and local government web resources and services.